{"data":{"norad_id":59857,"epoch":"2026-09-21T05:52:48.298944Z","epoch_age_seconds":110120,"freshness":"FRESH","line1":"1 59857U 24097Y   26264.24500346 -.00003336  00000+0 -11186-3 0  9996","line2":"2 59857  43.0012 250.0353 0000932 257.7183 102.3565 15.27548806131824","mean_motion":15.27548806,"eccentricity":9.32e-5,"inclination_deg":43.0012,"raan_deg":250.0353,"arg_perigee_deg":257.7183,"mean_anomaly_deg":102.3565,"bstar":-0.00011186,"rev_number":13182,"period_min":94.26867373035,"perigee_km":482.50303243742,"apogee_km":483.78197493691,"semimajor_km":6861.2795036872,"source":"CELESTRAK","updated_at":"2026-09-22T09:00:49.100004Z"}}